Aérodrome :
LOGIN :

S'inscrire | Disclaimer

   EN    FR    IT 

 










Légende :    VFR   VFR Marginal   IFR   IFR Intensif   IFR Très Intensif
Visi : 
Plafond : 
>= 8 km
>= 3000ft
5 à 8 km
1000 à 3000 ft
1500m à 5 km
500 à 1000 ft
800 à 1500m
200 à 500 ft
< 800m
< 200 ft
Symboles :   Orages  Brouillard  Fortes neiges  Fortes précipitations  Vent > 20 kt
SIGMETs :   Divers  Orages  Givrage  Turbulence  Onde Orograph.  Cendres Volcan.







- Altitude de l'aérodrome : 636 ft


LPBJ - Beja Air Base

DERNIER METAR :
  • 200800Z 30011KT CAVOK 08/07 Q1017

METARs EXPIRÉS :
  • 200700Z 30009KT 9999 SCT030 09/08 Q1016
  • 200600Z 30014KT 9999 SCT012 BKN030 10/08 Q1015

TAF TAF LPBJ
Valide du 20 à 06h jusqu'au 21 à 06h UTC


200503Z 2006/2106 31015KT 9999 SCT007 SCT015
TEMPO 2006/2017 32016G27KT
TEMPO 2006/2009 6000 -RADZ BR BKN005 BKN012
BECMG 2016/2019 32008KT
PROB40 VRB02KT 2102/2106 0500 FG NSC
Pas de NOTAMs connus pour ce terrain.



MET'MAP, la Météo Aéronautique d'un coup d'oeil ! - Copyright ORBIFLY Décembre 2007 - Disclaimer

ORBIFLY MET'MAP TEAM :

Programmation & Développement : Alexandra Zaïnal
Conception & Développement : Baudouin d'Aumeries
Co-Programmation & Développement : Marc-Olivier Méhu
Soutien technique & logistique : Manuel Goepfert

Contact : metmap@orbifly.com




SOURCES & CREDITS :

   NOAA